When you browse on this site, cookies collect data to enhance your experience and personalize the content and advertising you see.
Visit our Privacy Policy to learn more. By continuing to use the site, you agree to this use of cookies and data.
  • în România
  • Lista ţărilor
  • Pe 7 zile
  • Temperatura apei
  • Meteo pe hartă
  • Widget-uri
  • user-avatar
    Intrare

    Meteo pe oră la Nottingham

    Astăzi, 13 Decembrie, Vineri

    Timp Temperatura Precipitaţii Vânt Presiune Umiditate
    00:00 +4°C° 0.1 mm 3 m/s 721 mmHg 94%
    01:00 +4°C° 0.1 mm 3 m/s 721 mmHg 94%
    02:00 +4°C° 0.1 mm 4 m/s 721 mmHg 94%
    03:00 +4°C° 0.1 mm 4 m/s 721 mmHg 93%
    04:00 +3°C° 0.7 mm 5 m/s 722 mmHg 91%
    05:00 +3°C° 0.7 mm 6 m/s 723 mmHg 88%
    06:00 +3°C° 0.7 mm 7 m/s 724 mmHg 86%
    07:00 +3°C° 0 mm 7 m/s 724 mmHg 85%
    08:00 +3°C° 0 mm 7 m/s 725 mmHg 83%
    09:00 +2°C° 0 mm 8 m/s 726 mmHg 82%
    10:00 +4°C° 0 mm 8 m/s 726 mmHg 82%
    11:00 +4°C° 0 mm 7 m/s 726 mmHg 82%
    12:00 +4°C° 0 mm 7 m/s 727 mmHg 82%
    13:00 +4°C° 0.1 mm 7 m/s 727 mmHg 81%
    14:00 +5°C° 0.1 mm 7 m/s 727 mmHg 79%
    15:00 +5°C° 0.1 mm 7 m/s 728 mmHg 77%
    16:00 +5°C° 0 mm 7 m/s 728 mmHg 79%
    17:00 +5°C° 0 mm 7 m/s 729 mmHg 80%
    18:00 +5°C° 0 mm 7 m/s 729 mmHg 82%
    19:00 +4°C° 0 mm 7 m/s 730 mmHg 81%
    20:00 +4°C° 0 mm 7 m/s 730 mmHg 80%
    21:00 +3°C° 0 mm 7 m/s 730 mmHg 80%
    22:00 +3°C° 0 mm 6 m/s 730 mmHg 81%
    23:00 +2°C° 0 mm 6 m/s 729 mmHg 82%

    Mâine, 14 Decembrie, Sâmbătă

    Timp Temperatura Precipitaţii Vânt Presiune Umiditate
    00:00 +2°C° 0 mm 6 m/s 729 mmHg 83%
    01:00 +2°C° 0 mm 6 m/s 729 mmHg 83%
    02:00 +2°C° 0 mm 6 m/s 729 mmHg 84%
    03:00 +2°C° 0 mm 7 m/s 729 mmHg 85%
    04:00 +1°C° 0.3 mm 8 m/s 730 mmHg 81%
    05:00 +1°C° 0.3 mm 9 m/s 731 mmHg 77%
    06:00 +1°C° 0.3 mm 9 m/s 731 mmHg 73%
    07:00 +1°C° 0 mm 9 m/s 732 mmHg 71%
    08:00 +1°C° 0 mm 9 m/s 732 mmHg 70%
    09:00 0°C° 0 mm 9 m/s 733 mmHg 68%
    10:00 +1°C° 0 mm 9 m/s 733 mmHg 67%
    11:00 +1°C° 0 mm 10 m/s 734 mmHg 66%
    12:00 +2°C° 0 mm 10 m/s 734 mmHg 64%
    13:00 +1°C° 0 mm 9 m/s 735 mmHg 64%
    14:00 +1°C° 0 mm 8 m/s 735 mmHg 63%
    15:00 0°C° 0 mm 8 m/s 735 mmHg 62%
    16:00 0°C° 0 mm 7 m/s 735 mmHg 65%
    17:00 -1°C° 0 mm 6 m/s 735 mmHg 67%
    18:00 0°C° 0 mm 5 m/s 735 mmHg 70%
    19:00 0°C° 0.3 mm 5 m/s 735 mmHg 76%
    20:00 0°C° 0.3 mm 5 m/s 734 mmHg 81%
    21:00 0°C° 0.3 mm 5 m/s 733 mmHg 87%
    22:00 +1°C° 1 mm 6 m/s 732 mmHg 86%
    23:00 0°C° 1 mm 7 m/s 731 mmHg 85%

    Poimâine, 15 Decembrie, Duminică

    Timp Temperatura Precipitaţii Vânt Presiune Umiditate
    00:00 +2°C° 1 mm 7 m/s 731 mmHg 83%
    01:00 0°C° 0.3 mm 8 m/s 732 mmHg 83%
    02:00 0°C° 0.3 mm 9 m/s 733 mmHg 83%
    03:00 -2°C° 0.3 mm 10 m/s 734 mmHg 82%
    04:00 -1°C° 0 mm 8 m/s 735 mmHg 83%
    05:00 -2°C° 0 mm 6 m/s 736 mmHg 84%
    06:00 -1°C° 0 mm 5 m/s 737 mmHg 84%
    07:00 0°C° 0.2 mm 5 m/s 737 mmHg 85%
    08:00 0°C° 0.2 mm 5 m/s 737 mmHg 86%
    09:00 +1°C° 0.2 mm 6 m/s 738 mmHg 87%
    10:00 +2°C° 0 mm 6 m/s 738 mmHg 82%
    11:00 +3°C° 0 mm 7 m/s 738 mmHg 77%
    12:00 +4°C° 0 mm 8 m/s 739 mmHg 72%
    13:00 +3°C° 0.1 mm 7 m/s 739 mmHg 74%
    14:00 +3°C° 0.1 mm 6 m/s 738 mmHg 77%
    15:00 +3°C° 0.1 mm 6 m/s 738 mmHg 80%
    16:00 +2°C° 1.4 mm 6 m/s 738 mmHg 82%
    17:00 +2°C° 1.4 mm 6 m/s 738 mmHg 84%
    18:00 +1°C° 1.4 mm 6 m/s 739 mmHg 87%
    19:00 +1°C° 0 mm 6 m/s 739 mmHg 85%
    20:00 +1°C° 0 mm 6 m/s 740 mmHg 83%
    21:00 +1°C° 0 mm 6 m/s 740 mmHg 81%
    22:00 +1°C° 0 mm 6 m/s 741 mmHg 81%
    23:00 +1°C° 0 mm 6 m/s 741 mmHg 81%

    16 Decembrie, Luni

    Timp Temperatura Precipitaţii Vânt Presiune Umiditate
    00:00 +1°C° 0 mm 6 m/s 741 mmHg 81%
    01:00 +1°C° 0 mm 6 m/s 742 mmHg 82%
    02:00 +1°C° 0 mm 6 m/s 742 mmHg 82%
    03:00 +1°C° 0 mm 6 m/s 742 mmHg 83%
    04:00 +1°C° 0 mm 6 m/s 742 mmHg 84%
    05:00 +1°C° 0 mm 5 m/s 742 mmHg 85%
    06:00 +1°C° 0 mm 5 m/s 743 mmHg 86%
    07:00 +1°C° 0 mm 5 m/s 743 mmHg 86%
    08:00 +1°C° 0 mm 5 m/s 743 mmHg 86%
    09:00 +1°C° 0 mm 5 m/s 744 mmHg 86%
    10:00 +2°C° 0 mm 5 m/s 744 mmHg 84%
    11:00 +2°C° 0 mm 5 m/s 744 mmHg 82%
    12:00 +3°C° 0 mm 5 m/s 744 mmHg 81%
    13:00 +4°C° 0 mm 4 m/s 744 mmHg 83%
    14:00 +4°C° 0 mm 3 m/s 744 mmHg 85%
    15:00 +3°C° 0 mm 3 m/s 744 mmHg 86%
    16:00 +4°C° 0 mm 2 m/s 744 mmHg 88%
    17:00 +4°C° 0 mm 2 m/s 745 mmHg 89%
    18:00 +3°C° 0 mm 2 m/s 745 mmHg 90%
    19:00 +3°C° 0 mm 2 m/s 745 mmHg 91%
    20:00 +4°C° 0 mm 1 m/s 745 mmHg 91%
    21:00 +4°C° 0 mm 1 m/s 745 mmHg 91%
    22:00 +4°C° 0 mm 1 m/s 746 mmHg 91%
    23:00 +4°C° 0 mm 1 m/s 746 mmHg 91%

    17 Decembrie, Marţi

    Timp Temperatura Precipitaţii Vânt Presiune Umiditate
    00:00 +4°C° 0 mm 1 m/s 746 mmHg 91%
    01:00 +4°C° 0 mm 1 m/s 746 mmHg 91%
    02:00 +4°C° 0 mm 1 m/s 746 mmHg 91%
    03:00 +3°C° 0 mm 1 m/s 746 mmHg 92%
    04:00 +3°C° 0.3 mm 1 m/s 746 mmHg 92%
    05:00 +3°C° 0.3 mm 1 m/s 746 mmHg 93%
    06:00 +3°C° 0.3 mm 1 m/s 746 mmHg 94%
    07:00 +4°C° 0.2 mm 1 m/s 747 mmHg 94%
    08:00 +4°C° 0.2 mm 1 m/s 747 mmHg 94%
    09:00 +4°C° 0.2 mm 1 m/s 748 mmHg 94%
    10:00 +4°C° 0.2 mm 1 m/s 748 mmHg 94%
    11:00 +4°C° 0.2 mm 1 m/s 748 mmHg 93%
    12:00 +4°C° 0.2 mm 1 m/s 748 mmHg 93%
    13:00 +4°C° 0 mm 1 m/s 748 mmHg 93%
    14:00 +4°C° 0 mm 1 m/s 749 mmHg 93%
    15:00 +4°C° 0 mm 1 m/s 749 mmHg 93%
    16:00 +4°C° 0 mm 1 m/s 750 mmHg 94%
    17:00 +2°C° 0 mm 2 m/s 750 mmHg 94%
    18:00 +2°C° 0 mm 2 m/s 751 mmHg 94%
    19:00 +1°C° 0 mm 2 m/s 752 mmHg 94%
    20:00 +1°C° 0 mm 2 m/s 752 mmHg 94%
    21:00 +1°C° 0 mm 2 m/s 753 mmHg 93%
    22:00 +1°C° 0 mm 2 m/s 753 mmHg 94%
    23:00 +1°C° 0 mm 2 m/s 754 mmHg 94%

    18 Decembrie, Miercuri

    Timp Temperatura Precipitaţii Vânt Presiune Umiditate
    00:00 +1°C° 0 mm 2 m/s 754 mmHg 94%
    01:00 0°C° 0 mm 3 m/s 754 mmHg 93%
    02:00 0°C° 0 mm 3 m/s 754 mmHg 92%
    03:00 +1°C° 0 mm 3 m/s 754 mmHg 91%
    04:00 +1°C° 0 mm 3 m/s 754 mmHg 91%
    05:00 0°C° 0 mm 4 m/s 754 mmHg 90%
    06:00 +1°C° 0 mm 4 m/s 754 mmHg 90%
    07:00 +2°C° 0 mm 5 m/s 754 mmHg 88%
    08:00 +2°C° 0 mm 5 m/s 754 mmHg 87%
    09:00 +3°C° 0 mm 6 m/s 754 mmHg 86%
    10:00 +4°C° 0 mm 6 m/s 754 mmHg 85%
    11:00 +4°C° 0 mm 7 m/s 754 mmHg 85%
    12:00 +5°C° 0 mm 7 m/s 755 mmHg 84%
    13:00 +5°C° 0 mm 7 m/s 754 mmHg 85%
    14:00 +5°C° 0 mm 7 m/s 754 mmHg 85%
    15:00 +5°C° 0 mm 7 m/s 754 mmHg 86%
    16:00 +5°C° 0 mm 7 m/s 754 mmHg 86%
    17:00 +5°C° 0 mm 7 m/s 754 mmHg 87%
    18:00 +5°C° 0 mm 7 m/s 754 mmHg 87%
    19:00 +5°C° 0 mm 7 m/s 754 mmHg 86%
    20:00 +4°C° 0 mm 6 m/s 754 mmHg 85%
    21:00 +4°C° 0 mm 6 m/s 754 mmHg 83%
    22:00 +4°C° 0 mm 6 m/s 754 mmHg 84%
    23:00 +5°C° 0 mm 5 m/s 753 mmHg 84%
    Arată mai mult